Flag for Netherlands Weather past 2 weeks in Zwolle, Netherlands

54 °F

Passing clouds.

Feels Like: 52 °F
Forecast: 41 / 50 °F
Wind: 6 mph from Northeast

Location: Amsterdam Schiphol Airport

Current Time: Oct 10, 2015 at 8:03:11 AM

Latest Report: Oct 10, 2015 at 7:25 AM

Visibility: 4 mi

Pressure: 30.15 "Hg

Humidity: 94%

Dew point: 52 °F

Location of ZwolleLocation

Historic Weather in Zwolle — Graph


Zwolle temperature yesterday

Maximum temperature yesterday: 61 °F (at 1:55 PM)
Minimum temperature yesterday: 46 °F (at 7:25 AM)
Average temperature yesterday: 54 °F

Past Weeks' High & Low Weather Summary

High64 °F (Oct 3, 4:25 PM)100% (Sep 25, 6:55 AM)30.66 "Hg (Sep 25, 6:55 AM)
Low43 °F (Oct 2, 7:55 AM)55% (Sep 29, 5:25 PM)29.53 "Hg (Oct 6, 2:55 PM)
Average55 °F85%30.19 "Hg
* Reported Sep 25 6:55 AM — Oct 10 6:55 AM, Zwolle, Weather by CustomWeather, © 2015

Note: Actual official high and low records may vary slightly from our data, if they occured in-between our weather recording intervals... More about our weather records


Zwolle weather history for previous 24 hours

Time TempWeatherWind HumidityBarometerVisibility
6:55 AM
Sat, Oct 10
54 °FPassing clouds.9 mph100%30.15 "Hg4 mi
6:25 AM54 °FPassing clouds.10 mph100%30.18 "Hg4 mi
5:55 AM54 °FPassing clouds.6 mph100%30.18 "Hg6 mi
5:25 AM54 °FPassing clouds.8 mph94%30.15 "HgN/A
4:55 AM54 °FClear.6 mph94%30.18 "Hg10 mi
4:25 AM54 °FClear.7 mph100%30.18 "Hg10 mi
3:55 AM54 °FClear.5 mph100%30.18 "Hg10 mi
3:25 AM54 °FClear.5 mph100%30.18 "Hg10 mi
2:55 AM54 °FClear.3 mph100%30.18 "Hg10 mi
2:25 AM52 °FClear.2 mph100%30.18 "Hg10 mi
1:55 AM54 °FClear.3 mph100%30.18 "Hg10 mi
1:25 AM54 °FClear.3 mph94%30.18 "Hg10 mi
12:55 AM52 °FFog.5 mph100%30.18 "HgN/A
12:25 AM50 °FClear.5 mph100%30.18 "Hg10 mi
11:55 PM
Fri, Oct 9
52 °FClear.5 mph100%30.18 "Hg10 mi
10:55 PM52 °FPassing clouds.3 mph100%30.18 "HgN/A
10:25 PM52 °FPassing clouds.5 mph94%30.18 "HgN/A
9:55 PM54 °FPassing clouds.5 mph94%30.18 "HgN/A
9:25 PM52 °FPassing clouds.5 mph94%30.18 "HgN/A
8:55 PM54 °FPassing clouds.5 mph88%30.18 "HgN/A
8:25 PM54 °FPassing clouds.6 mph88%30.18 "HgN/A
7:55 PM54 °FPassing clouds.5 mph88%30.18 "HgN/A
7:25 PM54 °FPassing clouds.5 mph88%30.18 "HgN/A
6:55 PM54 °FPassing clouds.6 mph88%30.18 "HgN/A
6:25 PM57 °FPassing clouds.5 mph82%30.18 "HgN/A
5:55 PM59 °FPassing clouds.6 mph72%30.18 "HgN/A
5:25 PM59 °FPassing clouds.8 mph72%30.18 "HgN/A
4:55 PM61 °FPassing clouds.6 mph68%30.18 "HgN/A
4:25 PM61 °FPassing clouds.7 mph63%30.18 "HgN/A
3:55 PM61 °FPassing clouds.6 mph68%30.15 "HgN/A
3:25 PM61 °FPassing clouds.5 mph63%30.18 "HgN/A
2:55 PM59 °FScattered clouds.3 mph68%30.18 "HgN/A
2:25 PM59 °FPassing clouds.6 mph68%30.18 "HgN/A
1:55 PM61 °FPassing clouds.2 mph68%30.18 "HgN/A
1:25 PM59 °FPassing clouds.5 mph72%30.18 "HgN/A
12:55 PM59 °FPassing clouds.5 mph72%30.18 "HgN/A
12:25 PM57 °FPassing clouds.2 mph82%30.18 "HgN/A
11:55 AM57 °FPassing clouds.2 mph82%30.18 "HgN/A
11:25 AM57 °FPassing clouds.2 mph82%30.18 "HgN/A
10:55 AM55 °FPassing clouds.5 mph88%30.18 "HgN/A
10:25 AM54 °FPassing clouds.3 mph88%30.18 "HgN/A
9:55 AM54 °FPassing clouds.2 mph88%30.18 "Hg6 mi
9:25 AM50 °FPassing clouds.3 mph100%30.18 "HgN/A
8:55 AM46 °FFog.3 mph100%30.18 "HgN/A
8:25 AM48 °FFog.2 mph100%30.18 "HgN/A
Weather by CustomWeather, © 2015

See weather overviewHow to use our weather pages